FW4657 Weather Reports


time (UTC)temp
F
wind
direction
speed
knots
gust
knots
rain 1hr
in
rain 24hr
in
rain mn
in
humidity
%
barometer
mb
20260507040805 47 330 0.0 0.0 0.05 0.01 0.01 99 1008.6
20260507040301 47 302 0.0 1.7 0.05 0.00 0.00 99 1009.0
20260507035757 48 306 0.9 0.9 0.07 0.37 0.37 99 1009.0
20260507035252 48 333 0.0 0.0 0.00 0.36 0.36 99 1009.0
20260507034750 48 292 0.9 0.9 0.05 0.35 0.35 99 1008.6
20260507034247 48 316 1.7 2.6 0.05 0.35 0.35 99 1008.6
20260507033745 48 286 0.9 1.7 0.00 0.34 0.34 99 1008.3
20260507033242 48 321 0.9 1.7 0.00 0.34 0.34 99 1008.3
20260507032739 50 329 0.9 1.7 0.00 0.34 0.34 99 1008.3
20260507032236 50 299 1.7 1.7 0.00 0.34 0.34 99 1007.9
20260507031732 50 309 0.9 0.9 0.00 0.34 0.34 99 1008.3
20260507031229 50 327 1.7 1.7 0.00 0.34 0.34 99 1008.3
20260507030726 51 173 0.9 2.6 0.00 0.34 0.34 99 1007.9
20260507030223 51 336 0.9 1.7 0.00 0.34 0.34 99 1007.9
20260507025720 51 329 0.0 0.9 0.00 0.34 0.34 99 1007.9
20260507025217 51 329 0.9 1.7 0.12 0.34 0.34 99 1007.9
20260507024716 51 312 1.7 1.7 0.05 0.33 0.33 99 1007.6
20260507024213 52 248 0.0 0.0 0.00 0.32 0.32 99 1007.9
20260507023708 52 218 0.0 0.0 0.07 0.32 0.32 99 1007.9
20260507023205 52 331 0.0 0.0 0.07 0.32 0.32 99 1007.9
20260507022702 52 331 0.0 0.0 0.07 0.31 0.31 99 1007.6
20260507022158 52 230 0.0 0.0 0.05 0.30 0.30 99 1007.9
20260507021654 53 202 0.0 0.0 0.05 0.30 0.30 99 1007.6
20260507021149 53 290 0.0 0.0 0.00 0.29 0.29 99 1007.9
20260507020649 53 288 0.0 0.0 0.00 0.29 0.29 99 1007.6
20260507020144 53 248 0.0 0.0 0.00 0.29 0.29 99 1007.6
20260507015643 53 312 0.0 0.0 0.00 0.29 0.29 99 1007.3
20260507015140 53 314 0.0 0.0 0.00 0.29 0.29 99 1007.6
20260507014636 55 311 0.0 0.0 0.00 0.29 0.29 99 1007.6
20260507014132 54 184 0.0 0.0 0.00 0.29 0.29 99 1007.6
20260507013629 54 333 0.0 0.0 0.00 0.29 0.29 99 1007.6
20260507013126 56 343 0.0 0.0 0.00 0.29 0.29 99 1007.6
20260507012624 56 336 0.0 0.0 0.00 0.29 0.29 99 1007.6
20260507012119 57 309 0.0 0.0 0.00 0.29 0.29 99 1007.9
20260507011618 57 237 0.0 0.0 0.00 0.29 0.29 99 1007.6
20260507011113 57 217 0.0 0.0 0.00 0.29 0.29 99 1007.6
20260507010608 57 296 0.0 0.0 0.00 0.29 0.29 99 1007.6
20260507010104 57 42 0.0 0.0 0.00 0.29 0.29 99 1007.6
20260507005602 57 190 0.0 0.0 0.00 0.29 0.29 99 1007.6
20260507005058 56 36 0.0 0.0 0.00 0.29 0.29 99 1007.6
20260507004555 56 49 0.0 0.0 0.00 0.29 0.29 99 1007.6
20260507004052 57 347 0.9 0.9 0.00 0.29 0.29 99 1007.3
20260507003548 56 101 0.0 0.9 0.00 0.29 0.29 99 1007.3
20260507003043 56 123 0.9 2.6 0.00 0.29 0.29 99 1007.6
20260507002540 56 107 0.0 0.0 0.07 0.29 0.29 99 1007.3
20260507002036 56 136 0.0 0.0 0.19 0.29 0.29 99 1007.3
20260507001532 56 112 0.0 0.0 0.12 0.28 0.28 99 1007.3
20260507001025 56 79 0.0 0.0 0.05 0.26 0.26 99 1007.3
20260507000521 56 71 0.0 0.0 0.12 0.26 0.26 99 1007.3
20260507000016 56 65 0.0 0.0 0.07 0.25 0.25 99 1006.9
20260506235514 56 75 0.0 0.9 0.00 0.24 0.24 99 1007.3
20260506235009 56 101 0.9 1.7 0.00 0.24 0.24 99 1006.6
20260506234507 57 73 0.0 1.7 0.00 0.24 0.24 99 1007.3
20260506234004 57 17 0.0 0.0 0.00 0.24 0.24 99 1006.9
20260506233501 57 55 0.0 0.9 0.00 0.24 0.24 99 1006.9
20260506232957 57 29 0.0 0.0 0.00 0.24 0.24 99 1006.9
20260506232454 57 62 0.0 0.0 0.00 0.24 0.24 99 1006.9
20260506231950 57 195 0.0 0.0 0.00 0.24 0.24 99 1007.3
20260506231447 57 315 0.0 0.0 0.00 0.24 0.24 99 1007.3
20260506230944 57 352 0.0 0.0 0.05 0.24 0.24 99 1006.9
20260506230440 57 356 0.9 0.9 0.05 0.24 0.24 99 1007.3
20260506225937 57 153 0.0 0.9 0.07 0.23 0.23 99 1006.9
20260506225435 57 110 0.0 0.9 0.00 0.23 0.23 99 1007.3
20260506224931 57 78 0.0 1.7 0.05 0.22 0.22 99 1007.3
20260506224429 57 100 0.0 0.0 0.05 0.22 0.22 99 1007.6
20260506223925 57 42 0.0 0.0 0.07 0.21 0.21 99 1007.3
20260506223420 58 54 0.0 0.0 0.14 0.21 0.21 99 1007.3
20260506222918 58 350 0.0 0.0 0.19 0.20 0.20 99 1007.3
20260506222414 58 51 0.0 0.0 0.12 0.19 0.19 99 1007.6
20260506221911 58 93 0.0 0.0 0.12 0.17 0.17 99 1007.6
20260506221408 58 6 0.0 0.0 0.07 0.16 0.16 99 1007.6
20260506220906 58 180 0.0 0.0 0.00 0.15 0.15 99 1007.6
20260506220402 58 187 0.0 0.0 0.05 0.15 0.15 99 1007.6
20260506215858 58 309 0.0 0.9 0.05 0.15 0.15 99 1007.9
20260506215354 58 89 0.0 0.9 0.00 0.14 0.14 99 1007.9
20260506214850 58 100 0.0 0.9 0.00 0.14 0.14 99 1007.9
20260506214347 58 82 0.0 0.0 0.00 0.14 0.14 99 1007.9
20260506213845 58 95 0.0 0.0 0.00 0.14 0.14 99 1007.9
20260506213342 58 101 0.0 0.0 0.00 0.14 0.14 99 1008.3
20260506212839 58 354 0.0 0.0 0.00 0.14 0.14 99 1008.3
20260506212336 58 83 0.0 0.9 0.00 0.14 0.14 99 1008.3
20260506211830 58 50 0.0 0.0 0.00 0.14 0.14 99 1008.3
20260506211327 58 222 0.0 0.9 0.00 0.14 0.14 99 1008.3
20260506210824 58 41 0.0 0.0 0.00 0.14 0.14 99 1008.3
20260506210321 58 5 0.0 0.0 0.00 0.14 0.14 99 1008.6
20260506205818 58 70 0.0 0.0 0.00 0.14 0.14 99 1008.3
20260506205314 58 43 0.0 0.0 0.00 0.14 0.14 99 1008.3
20260506204810 58 73 0.0 1.7 0.00 0.14 0.14 99 1008.3
20260506204308 58 166 0.0 0.0 0.00 0.14 0.14 99 1008.3
20260506203806 58 92 0.9 1.7 0.00 0.14 0.14 99 1008.3
20260506203303 58 86 0.0 0.9 0.00 0.14 0.14 99 1008.3
20260506202800 58 49 0.9 1.7 0.00 0.14 0.14 99 1007.9
20260506202257 58 27 0.0 1.7 0.00 0.14 0.14 99 1007.9
20260506201753 58 33 0.0 0.0 0.07 0.14 0.14 99 1008.3
20260506201250 58 125 0.0 0.0 0.07 0.14 0.14 99 1008.3
20260506200747 58 159 0.0 0.0 0.00 0.13 0.13 99 1008.3
20260506200243 58 311 0.0 0.0 0.00 0.13 0.13 99 1008.3
20260506195739 58 213 0.0 0.0 0.00 0.13 0.13 99 1008.6
20260506195236 58 112 0.0 0.0 0.05 0.13 0.13 99 1008.6
20260506194734 58 72 0.0 0.0 0.05 0.13 0.13 99 1008.6
20260506194230 58 108 0.0 0.9 0.00 0.12 0.12 99 1008.6
20260506193728 58 87 0.0 0.0 0.07 0.12 0.12 99 1009.0
20260506193225 58 357 0.0 0.0 0.07 0.12 0.12 99 1009.0
20260506192721 58 153 0.0 0.0 0.05 0.11 0.11 99 1008.6
20260506192218 58 32 0.0 0.0 0.05 0.11 0.11 99 1008.6
20260506191715 58 28 0.0 0.0 0.00 0.10 0.10 99 1008.6
20260506191211 58 138 0.0 0.0 0.00 0.10 0.10 99 1009.0
20260506190708 58 113 0.0 0.0 0.07 0.10 0.10 99 1009.0
20260506190205 58 97 0.0 1.7 0.07 0.10 0.10 99 1009.0
20260506185702 58 70 0.0 0.9 0.00 0.09 0.09 99 1009.0
20260506185158 58 62 0.0 0.9 0.05 0.09 0.09 99 1009.0
20260506184656 58 83 1.7 2.6 0.12 0.09 0.09 99 1009.3
20260506184153 58 26 0.0 0.0 0.19 0.08 0.08 99 1009.3
20260506183650 58 57 0.0 0.0 0.05 0.06 0.06 99 1009.0
20260506183145 58 312 0.0 0.0 0.07 0.05 0.05 99 1009.6
20260506182643 58 73 0.0 0.0 0.07 0.05 0.05 99 1009.6
20260506182140 59 231 0.0 0.0 0.05 0.04 0.04 99 1009.6
20260506181638 59 103 0.0 0.0 0.05 0.04 0.04 98 1009.6
20260506181135 59 232 0.0 0.9 0.07 0.03 0.03 98 1009.3
20260506180632 59 62 0.0 0.0 0.07 0.03 0.03 97 1009.3
20260506180128 60 57 0.0 0.0 0.05 0.02 0.02 96 1009.6
20260506175624 60 288 0.0 0.0 0.07 0.02 0.02 94 1009.6
20260506175120 60 150 0.0 0.0 0.07 0.01 0.01 93 1009.3
20260506174619 62 247 0.0 0.0 0.00 0.00 0.00 92 1009.3
20260506174116 62 77 0.0 0.9 0.00 0.00 0.00 92 1009.3
20260506173613 62 110 0.0 0.0 0.00 0.00 0.00 90 1009.3
20260506173110 62 227 0.0 0.0 0.00 0.00 0.00 91 1009.3
20260506172608 62 88 0.0 0.0 0.00 0.00 0.00 89 1009.3
20260506172103 62 119 0.0 0.0 0.00 0.00 0.00 87 1009.6
20260506171601 62 201 0.0 0.0 0.00 0.00 0.00 87 1009.3
20260506171058 62 46 0.0 0.0 0.00 0.00 0.00 87 1009.6
20260506170555 62 72 0.0 0.0 0.00 0.00 0.00 87 1009.6
20260506170047 62 218 0.0 0.0 0.00 0.00 0.00 87 1009.6
20260506165545 62 127 0.0 0.0 0.00 0.00 0.00 88 1009.6
20260506165041 62 52 0.0 0.0 0.00 0.00 0.00 89 1010.0
20260506164539 62 69 0.0 0.0 0.00 0.00 0.00 90 1010.0
20260506164036 62 1 0.0 0.0 0.00 0.00 0.00 89 1010.4
20260506163532 62 347 0.0 0.0 0.00 0.00 0.00 88 1010.8
20260506163028 62 70 0.0 0.0 0.00 0.00 0.00 87 1010.8
20260506162524 62 134 0.0 0.0 0.00 0.00 0.00 86 1010.8
20260506162021 62 126 0.0 0.0 0.00 0.00 0.00 85 1011.1
20260506161518 62 60 0.0 0.0 0.00 0.00 0.00 84 1011.1
20260506161010 63 66 0.0 0.0 0.00 0.00 0.00 84 1011.1
20260506160508 63 135 0.0 0.0 0.00 0.00 0.00 83 1011.4
20260506160004 62 202 0.0 0.9 0.00 0.00 0.00 82 1011.1
20260506155502 63 49 0.0 0.0 0.00 0.00 0.00 82 1011.1
20260506153634 63 38 0.0 0.0 0.00 0.00 0.00 81 1011.4
20260506153132 62 339 0.0 1.7 0.00 0.00 0.00 81 1011.8
20260506152628 62 129 0.0 0.9 0.00 0.00 0.00 81 1011.8
20260506152126 62 132 0.0 1.7 0.00 0.00 0.00 81 1011.4
20260506151625 62 80 0.0 0.0 0.00 0.00 0.00 80 1011.4
20260506151121 62 75 0.0 0.0 0.00 0.00 0.00 81 1011.8
20260506150618 62 86 0.0 0.9 0.00 0.00 0.00 81 1011.4
20260506150115 62 185 0.0 0.9 0.00 0.00 0.00 81 1011.4
20260506145612 62 82 0.0 0.0 0.00 0.00 0.00 81 1011.4
20260506145109 62 83 0.0 1.7 0.00 0.00 0.00 82 1011.4
20260506144606 62 66 0.0 0.9 0.00 0.00 0.00 81 1011.4
20260506144102 62 161 0.0 0.0 0.00 0.00 0.00 81 1011.4
20260506143601 60 55 0.0 1.7 0.00 0.00 0.00 81 1011.4
20260506143058 61 112 0.0 1.7 0.00 0.00 0.00 81 1011.8
20260506142556 62 75 0.0 0.9 0.00 0.00 0.00 82 1011.4
20260506142054 62 93 0.0 0.0 0.00 0.00 0.00 82 1011.4
20260506141551 62 161 0.0 0.0 0.00 0.00 0.00 80 1011.4
20260506141050 60 83 0.0 0.0 0.00 0.00 0.00 81 1011.4
20260506140547 61 85 0.0 0.0 0.00 0.00 0.00 82 1011.4
20260506140044 61 75 0.0 0.0 0.00 0.00 0.00 82 1011.8
20260506135541 59 99 0.0 0.0 0.00 0.00 0.00 83 1011.8
20260506135037 59 54 0.0 0.0 0.00 0.00 0.00 83 1011.8
20260506134534 59 88 0.0 0.0 0.00 0.00 0.00 84 1011.8
20260506134029 59 65 0.0 0.9 0.00 0.00 0.00 83 1011.8
20260506133527 59 102 0.0 0.9 0.00 0.00 0.00 84 1011.8
20260506133024 58 79 0.0 0.0 0.00 0.00 0.00 84 1012.1
20260506132521 58 86 0.0 0.0 0.00 0.00 0.00 85 1011.8
20260506132018 58 83 0.0 0.0 0.00 0.00 0.00 85 1012.1
20260506131515 59 75 0.0 0.0 0.00 0.00 0.00 84 1011.8
20260506131012 58 141 0.0 0.0 0.00 0.00 0.00 85 1011.8
20260506130508 58 116 0.0 0.0 0.00 0.00 0.00 85 1011.8
20260506130006 58 62 0.0 0.0 0.00 0.00 0.00 85 1011.8
20260506125504 58 153 0.0 0.0 0.00 0.00 0.00 85 1012.1
20260506125001 58 99 0.0 0.0 0.00 0.00 0.00 86 1011.8
20260506124459 58 6 0.0 0.0 0.00 0.00 0.00 84 1011.8
20260506123957 58 30 0.0 0.0 0.00 0.00 0.00 84 1012.1
20260506123455 59 73 0.0 0.0 0.00 0.00 0.00 85 1012.1
20260506122952 59 34 0.0 0.0 0.00 0.00 0.00 84 1012.1
20260506122449 58 168 0.0 0.0 0.00 0.00 0.00 85 1012.1
20260506121947 58 128 0.0 0.0 0.00 0.00 0.00 85 1012.5
20260506121444 58 79 0.0 0.9 0.00 0.00 0.00 86 1012.5
20260506120940 58 62 0.0 1.7 0.00 0.00 0.00 86 1012.5
20260506120438 58 46 0.0 0.0 0.00 0.00 0.00 86 1012.1
20260506115935 58 218 0.0 0.0 0.00 0.00 0.00 86 1012.1
20260506115433 57 82 0.0 0.0 0.00 0.00 0.00 87 1012.5
20260506114931 57 49 0.0 0.0 0.00 0.00 0.00 89 1012.8
20260506114429 56 64 0.0 0.9 0.00 0.00 0.00 89 1012.5
20260506113927 56 57 0.0 1.7 0.00 0.00 0.00 90 1012.5
20260506113424 57 78 1.7 1.7 0.00 0.00 0.00 90 1012.5
20260506112915 57 147 0.0 0.9 0.00 0.00 0.00 90 1012.5
20260506112413 57 195 0.0 0.0 0.00 0.00 0.00 90 1012.8
20260506111910 57 152 0.0 0.0 0.00 0.00 0.00 91 1012.5
20260506111408 57 96 0.0 0.0 0.00 0.00 0.00 91 1012.5
20260506110905 57 73 0.0 0.0 0.00 0.00 0.00 91 1012.8
20260506110402 57 134 0.0 0.0 0.00 0.00 0.00 92 1012.5
20260506105859 56 103 0.0 0.0 0.00 0.00 0.00 92 1012.5
20260506105355 56 111 0.0 0.0 0.00 0.00 0.00 93 1012.5
20260506104853 56 102 0.0 0.0 0.00 0.00 0.00 95 1012.8
20260506104350 54 235 0.0 0.0 0.00 0.00 0.00 96 1012.5
20260506103848 54 106 0.0 0.0 0.00 0.00 0.00 96 1012.5
20260506103345 54 310 0.0 0.0 0.00 0.00 0.00 96 1012.5
20260506102842 55 178 0.0 0.0 0.00 0.00 0.00 96 1012.5
20260506102340 55 38 0.0 0.0 0.00 0.00 0.00 96 1012.5
20260506101837 54 73 0.0 0.0 0.00 0.00 0.00 96 1012.5
20260506101333 55 214 0.0 0.0 0.00 0.00 0.00 97 1012.5
20260506100831 54 334 0.0 0.0 0.00 0.00 0.00 97 1012.5
20260506100329 53 336 0.0 0.0 0.00 0.00 0.00 97 1012.5
20260506095827 53 325 0.0 0.0 0.00 0.00 0.00 96 1012.5
20260506095324 53 344 0.0 0.0 0.00 0.00 0.00 96 1012.1
20260506094821 53 318 0.0 0.0 0.00 0.00 0.00 96 1012.5
20260506094320 54 283 0.0 0.0 0.00 0.00 0.00 96 1012.1
20260506093818 54 287 0.0 0.0 0.00 0.00 0.00 95 1012.5
20260506093314 54 236 0.0 0.0 0.00 0.00 0.00 95 1012.5
20260506092812 54 280 0.0 0.0 0.00 0.00 0.00 95 1012.5
20260506092310 54 192 0.0 0.0 0.00 0.00 0.00 96 1012.1
20260506091807 54 173 0.0 0.0 0.00 0.00 0.00 96 1012.1
20260506091304 54 206 0.0 0.0 0.00 0.00 0.00 95 1012.1
20260506090802 55 307 0.0 0.0 0.00 0.00 0.00 95 1012.1
20260506090259 54 229 0.0 0.0 0.00 0.00 0.00 96 1012.1
20260506085755 54 215 0.0 0.0 0.00 0.00 0.00 96 1012.1
20260506085252 54 304 0.0 0.0 0.00 0.00 0.00 95 1012.1
20260506084748 54 17 0.0 0.0 0.00 0.00 0.00 95 1011.8
20260506084245 56 338 0.0 0.0 0.00 0.00 0.00 94 1012.1
20260506083742 56 261 0.0 0.0 0.00 0.00 0.00 94 1012.1
20260506083240 56 171 0.0 0.0 0.00 0.00 0.00 94 1012.1
20260506082737 56 220 0.0 0.0 0.00 0.00 0.00 95 1012.1
20260506082232 56 174 0.0 0.0 0.00 0.00 0.00 95 1012.1
20260506081730 56 237 0.0 0.0 0.00 0.00 0.00 95 1012.1
20260506081227 56 283 0.0 0.0 0.00 0.00 0.00 94 1012.1
20260506080726 56 101 0.0 0.0 0.00 0.00 0.00 93 1012.5
20260506080221 56 170 0.0 0.0 0.00 0.00 0.00 94 1012.1
20260506073206 56 271 0.0 0.0 0.00 0.00 0.00 93 1011.8
20260506072702 56 216 0.0 0.0 0.00 0.00 0.00 94 1011.8
20260506072200 54 341 0.0 0.0 0.00 0.00 0.00 94 1011.4
20260506071657 56 352 0.0 0.0 0.00 0.00 0.00 93 1011.4
20260506071155 56 192 0.0 0.0 0.00 0.00 0.00 94 1011.4
20260506070652 56 332 0.0 0.0 0.00 0.00 0.00 94 1011.4
20260506070148 56 302 0.0 0.0 0.00 0.00 0.00 93 1011.4
20260506062126 56 313 0.0 0.0 0.00 0.00 0.00 92 1011.1
20260506061621 56 327 0.0 0.0 0.00 0.00 0.00 92 1010.8
20260506061120 57 286 0.0 0.0 0.00 0.00 0.00 90 1011.1
20260506060618 57 281 0.0 0.0 0.00 0.00 0.00 89 1011.1
20260506060114 58 326 0.0 0.0 0.00 0.00 0.00 88 1011.1
20260506051046 59 282 0.0 0.0 0.00 0.00 0.00 85 1011.1
20260506050544 59 235 0.0 0.0 0.00 0.00 0.00 86 1011.1
20260506045035 59 285 0.0 0.0 0.00 0.00 0.00 86 1011.1
20260506044533 59 68 0.0 0.0 0.00 0.00 0.00 87 1011.4
20260506044029 59 112 0.0 0.0 0.00 0.00 0.00 86 1011.1
20260506043526 59 198 0.0 0.0 0.00 0.00 0.00 86 1011.1
20260506043025 59 203 0.0 0.0 0.00 0.00 0.00 86 1011.1
20260506042523 59 192 0.0 0.0 0.00 0.00 0.00 87 1011.1
20260506042021 59 308 0.0 0.0 0.00 0.00 0.00 88 1011.4
20260506041520 58 20 0.0 0.0 0.00 0.00 0.00 90 1011.4
20260506041016 58 205 0.0 0.0 0.00 0.00 0.00 91 1011.4